Aeroporto :
LOGIN :

Iscrizione | Disclaimer

   EN    FR    IT 

 










Sommario :    VFR   VFR Marginale   IFR   IFR Intensivo   IFR Molto Intensivo
Visibilità : 
Base nubi : 
>= 8 km
>= 3000ft
5 / 8 km
1000 / 3000 ft
1500m / 5 km
500 / 1000 ft
800 / 1500m
200 / 500 ft
< 800m
< 200 ft
Simboli :   Temporali  Nebbia  Neve Forte  Precipitazioni Forti  Vento > 20 kt
SIGMETs :   Varie  Temporali  Ghiacco  Turbolenza  Onda orograficha  Ceneri Vulcaniche






- Altitudine del aeroporto : 74 ft
- Codice IATA : NDZ


ETMN - Cuxhaven Nordholz Sea AB

ULTIMO METAR :
  • 091020Z 14006KT 1200 R08/2100N BR OVC001 01/01 Q1003 RED RED

METARs OBSOLETI :
  • 090920Z 13007KT 1500 R08/3100D BR OVC001 01/01 Q1003 RED RED
  • 090820Z 13007KT 1500 R08/3700N BR OVC001 01/01 Q1003 RED RED

TAF TAF ETMN
Valido dal 09 a 09 ore il 09 a 18 ore UTC


090810Z 0909/0918 13007KT 2000 BR BKN001
BECMG 0910/0912 14007KT 4000 BR BKN005
PROB30 0912/0918 15007KT 5000 BR BKN010



MetMap, La meteo Aeronautica in un colpo d'occhio ! - Copyright ORBIFLY Dicembre 2007 - Disclaimer

ORBIFLY MET'MAP TEAM :

Programmazione e sviluppo : Alexandra Zaïnal
Concezione : Baudouin d'Aumeries
Aiuto per la programmazione : Marc-Olivier Méhu
Supporto tecnico e logistico : Manuel Goepfert
Aiuto per la traduzione : Arnaldo La Scala

Contatto : metmap@orbifly.com




FONTI E CREDITI :

   NOAA